Location: Mat�lon
(46.2791°N, 7.1028°E)
Time: 16:50:21
(UTC+00:00)

Cosmos 1844 Rocket - Pass Details

Date: 18 September 2020
Orbit: 823 x 846 km, 71.0° (Epoch: 30 October)

Event Time Altitude Azimuth Distance (km) Brightness Sun altitude
Rises 19:37:38 0° 199° (SSW) 3,344 5.7 -21.0°
Reaches altitude 10° 19:40:03 10° 198° (SSW) 2,416 5.0 -21.4°
Maximum altitude 19:45:34 76° 114° (ESE) 853 2.5 -22.2°
Drops below altitude 10° 19:51:09 10° 29° (NNE) 2,442 5.1 -23.1°
Sets 19:53:36 0° 28° (NNE) 3,383 5.9 -23.4°
